St. Joseph, KS

5:00 PM CDT on May 26, 2017 (GMT -0500)
Rosecrans Memorial

Weather History for KSTJ - May, 2013

Change the Weather History Date:

Thursday, May 23, 2013

  Actual Average Record
Temperature  
Mean Temperature 60 °F 67 °F  
Max Temperature 70 °F 78 °F 92 °F (1967)
Min Temperature 50 °F 56 °F 37 °F (1963)
Degree Days  
Heating Degree Days 5 2  
Month to date heating degree days 160 101  
Since 1 July heating degree days 5593 5439  
Cooling Degree Days 0 4  
Month to date cooling degree days 55 52  
Year to date cooling degree days 71 73  
Growing Degree Days 12 (Base 50)    
Moisture  
Dew Point 48 °F    
Average Humidity 65    
Maximum Humidity 83    
Minimum Humidity 47    
Precipitation  
Precipitation 0.00 in 0.19 in 2.07 in (1995)
Month to date precipitation 1.89 4.09  
Year to date precipitation 8.40 11.62  
Sea Level Pressure  
Sea Level Pressure 30.11 in    
Wind  
Wind Speed 8 mph (North)    
Max Wind Speed 20 mph    
Max Gust Speed 23 mph    
Visibility 10 miles    
Events      
T = Trace of Precipitation, MM = Missing Value Source: NWS Daily Summary

Daily Weather History Graph

Daily Weather History Graph

Search for Another Location

Airport or City:

Trip Planner

Search our weather history database for the weather conditions in past years. The results will help you decide how hot, cold, wet, or windy it might be!

Date:

Astronomy

May. 23, 2013 Rise Set
Actual Time 5:58 AM CDT 8:34 PM CDT
Civil Twilight 5:27 AM CDT 9:06 PM CDT
Nautical Twilight 4:48 AM CDT 9:45 PM CDT
Astronomical Twilight 4:04 AM CDT 10:29 PM CDT
Moon 7:08 PM CDT (5/23) 4:43 AM CDT (5/23)
Length of Visible Light 15h 39m
Length of Day
14h 36m
Waxing Gibbous, 97% of the Moon is Illuminated
May 23
Waxing Gibbous
May 24
Full
May 31
Last Quarter
Jun 8
New
Jun 16
First Quarter

Hourly Weather History & Observations

Time (CDT) Temp. Dew Point Humidity Pressure Visibility Wind Dir Wind Speed Gust Speed Precip Events Conditions
12:53 AM 57.0 °F 46.9 °F 69% 29.95 in 10.0 mi NW 8.1 mph - N/A   Clear
1:53 AM 55.0 °F 46.9 °F 74% 29.97 in 10.0 mi NW 8.1 mph - N/A   Clear
2:53 AM 55.0 °F 46.9 °F 74% 29.98 in 10.0 mi NW 6.9 mph - N/A   Mostly Cloudy
3:48 AM 55.4 °F 48.2 °F 77% 30.00 in 10.0 mi NW 9.2 mph - N/A   Overcast
3:53 AM 55.9 °F 48.0 °F 75% 29.99 in 10.0 mi NW 9.2 mph - N/A   Overcast
4:53 AM 57.0 °F 48.0 °F 72% 30.02 in 10.0 mi NNW 11.5 mph - N/A   Overcast
5:49 AM 55.4 °F 46.4 °F 72% 30.05 in 10.0 mi North 10.4 mph - N/A   Overcast
5:53 AM 55.9 °F 46.9 °F 72% 30.05 in 10.0 mi NNW 10.4 mph - N/A   Overcast
6:39 AM 55.4 °F 48.2 °F 77% 30.07 in 10.0 mi NNW 12.7 mph - N/A   Overcast
6:53 AM 55.9 °F 48.0 °F 75% 30.07 in 10.0 mi North 13.8 mph - N/A   Overcast
7:53 AM 57.0 °F 48.0 °F 72% 30.09 in 10.0 mi North 12.7 mph - N/A   Overcast
8:53 AM 57.9 °F 48.9 °F 72% 30.12 in 10.0 mi NNW 12.7 mph - N/A   Overcast
9:53 AM 57.9 °F 48.0 °F 70% 30.14 in 10.0 mi NNW 11.5 mph - N/A   Overcast
10:53 AM 62.1 °F 48.9 °F 62% 30.13 in 10.0 mi North 17.3 mph - N/A   Overcast
11:53 AM 61.0 °F 48.9 °F 64% 30.16 in 10.0 mi North 8.1 mph - N/A   Overcast
12:53 PM 62.1 °F 50.0 °F 65% 30.18 in 10.0 mi NNE 6.9 mph - N/A   Overcast
1:53 PM 62.1 °F 50.0 °F 65% 30.18 in 10.0 mi Calm Calm - N/A   Overcast
2:41 PM 64.4 °F 51.8 °F 64% 30.19 in 10.0 mi Calm Calm - N/A   Overcast
2:53 PM 64.9 °F 51.1 °F 61% 30.19 in 10.0 mi Calm Calm - N/A   Overcast
3:53 PM 68.0 °F 52.0 °F 56% 30.18 in 10.0 mi Variable 3.5 mph - N/A   Scattered Clouds
4:53 PM 69.1 °F 50.0 °F 51% 30.17 in 10.0 mi ENE 9.2 mph - N/A   Scattered Clouds
5:53 PM 69.1 °F 48.9 °F 49% 30.17 in 10.0 mi ENE 9.2 mph - N/A   Clear
6:53 PM 69.1 °F 48.9 °F 49% 30.17 in 10.0 mi East 8.1 mph - N/A   Clear
7:53 PM 66.9 °F 48.0 °F 51% 30.17 in 10.0 mi East 9.2 mph - N/A   Clear
8:53 PM 63.0 °F 48.0 °F 58% 30.17 in 10.0 mi East 4.6 mph - N/A   Clear
9:53 PM 61.0 °F 48.0 °F 62% 30.19 in 10.0 mi East 4.6 mph - N/A   Clear
10:53 PM 59.0 °F 48.0 °F 67% 30.22 in 10.0 mi ESE 4.6 mph - N/A   Clear
11:53 PM 51.1 °F 46.0 °F 83% 30.24 in 10.0 mi Calm Calm - N/A   Clear